Weather Roundup
Issued by NWS

Home | Current Version | Previous Version | Graphics & Text | Print | Product List | Glossary Off
Versions: 1 2 3 4 5 6 7 8 9 10 11 12 13 14 15 16 17 18 19 20 21 22 23 24 25 26 27 28 29 30 31 32 33 34 35 36 37 38 39 40 41 42 43 44 45 46 47 48 49 50

000
NZUS93 KARX 011310
HRRWXR

CURRENT HOURLY OBSERVATIONS ACROSS
MUCH OF THE UPPER MISSISSIPPI VALLEY
NATIONAL WEATHER SERVICE LA CROSSE WI
800 AM CDT TUE SEP 01 2015


...SOUTHEAST MINNESOTA...


CITY           SKY/WX    TMP DP  RH WIND       PRES   REMARKS
ROCHESTER      FOG       67  67 100 S6        29.98R VSB 1/4
ROCHESTER/MAYO FAIR      68  68 100 SE7       29.97S
WINONA         PTSUNNY   70  70 100 SE5       29.96F FOG
AUSTIN         MOSUNNY   70  68  94 S3        29.97R FOG
ALBERT LEA     SUNNY     70  68  94 CALM      29.96R FOG
DODGE CENTER   FOG       66  66 100 S5        29.97R VSB 1
PRESTON          N/A     68  66  96 S5        29.99S FOG
OWATONNA       SUNNY     72  68  88 SE8       29.95S FOG
FARIBAULT      SUNNY     66  66 100 CALM      29.95S FOG
$$

...ELSEWHERE IN MINNESOTA...


CITY           SKY/WX    TMP DP  RH WIND       PRES   REMARKS
MINNEAPOLIS    PTSUNNY   71  66  84 SE5       29.93R
INTNL FALLS    PTSUNNY   55  54  96 CALM      29.90S FOG
DULUTH         MOSUNNY   70  67  90 W5        29.92R FOG
RED WING       PTSUNNY   72  70  94 CALM      29.94R FOG
REDWOOD FALLS  CLOUDY    68  66  93 E6        29.90F FOG
MANKATO        MOSUNNY   68  64  88 SE7       29.93S
WORTHINGTON    PTSUNNY   66  63  88 S5        29.93S
FAIRMONT       MOSUNNY   66  61  82 S7        29.93S
$$

...SOUTHWEST WISCONSIN...


CITY           SKY/WX    TMP DP  RH WIND       PRES   REMARKS
LA CROSSE      MOSUNNY   71  70  96 SE6       29.97R FOG
PRAIRIE DU CHI MOSUNNY   71  69  93 E3        29.99S FOG
BOSCOBEL       FOG       68  67  96 CALM      30.00S VSB<1/4
LONE ROCK      SUNNY     71  68  90 CALM      30.01S FOG
PLATTEVILLE    SUNNY     71  70  99 SE5       30.03S
FORT MC COY    SUNNY     69  67  94 CALM      29.99S FOG
CAMP DOUGLAS   MOSUNNY   72  72 100 S9        29.99S
VIROQUA          N/A     70  70 100 S3        30.01S VSB 1/2
WIS DELLS      MOSUNNY   72  69  89 S3        30.01S FOG
$$

...ELSEWHERE IN WISCONSIN...


CITY           SKY/WX    TMP DP  RH WIND       PRES   REMARKS
MILWAUKEE      MOSUNNY   72  68  87 SW8       30.03S FOG
MADISON        SUNNY     72  69  90 S6        30.02R FOG
GREEN BAY      MOSUNNY   70  68  93 S5        30.00S
EAU CLAIRE     MOSUNNY   70  69  97 S6        29.95S FOG
BLACK RVR FLS  FOG       65  65 100 CALM      29.98R VSB<1/4
MEDFORD        HVY RAIN  66  66 100 S5        30.00S VSB<1/4
WAUSAU         MOSUNNY   69  67  93 CALM      29.98F FOG
WIS RAPIDS     SUNNY     71  67  87 SW5       30.00F FOG
MARSHFIELD     FOG       68  65  90 S6        30.00R VSB 1/4
RICE LAKE      CLOUDY    70  68  95 SE5       29.97S FOG
$$

...NORTHEAST IOWA...


CITY           SKY/WX    TMP DP  RH WIND       PRES   REMARKS
DECORAH        SUNNY     70  70 100 CALM      29.99R FOG
MASON CITY     SUNNY     67  67 100 S6        29.98R FOG
CHARLES CITY   SUNNY     70  70 100 S5        29.99R FOG
OELWEIN          N/A     70  70 100 S6        30.01R FOG
$$

...ELSEWHERE IN IOWA...


CITY           SKY/WX    TMP DP  RH WIND       PRES   REMARKS
DES MOINES     MOSUNNY   72  68  87 S9        29.98R
IOWA CITY      SUNNY     71  68  90 SE3       30.03S FOG
FORT DODGE     SUNNY     68  64  88 SE7       29.96S
$$

...NORTHERN ILLINOIS...


CITY           SKY/WX    TMP DP  RH WIND       PRES   REMARKS
CHICAGO-OHARE  MOSUNNY   73  71  93 S3        30.05S
CHICAGO-MIDWAY MOSUNNY   75  69  81 S7        30.06R
MOLINE         MOSUNNY   75  70  84 CALM      30.04R HAZE
ROCKFORD       MOSUNNY   72  69  90 S6        30.06R FOG
PEORIA         SUNNY     75  71  87 S6        30.07R FOG
$$

NOTE: "FAIR" INDICATES FEW OR NO CLOUDS BELOW 12,000 FEET WITH NO
SIGNIFICANT WEATHER AND/OR OBSTRUCTIONS TO VISIBILITY. WIND
SPEEDS ARE IN MILES-PER-HOUR.



USA.gov is the U.S. government's official web portal to all federal, state and local government web resources and services.